"2003/01/01",  2.8,  3.4,  2.4
"2003/01/02",  2.6,  3.6,  2.1
"2003/01/03",  1.9,  2.3,  1.3
"2003/01/04",  2.4,  3.9,  1.4
"2003/01/05",  2.1,  2.9,  1.3
"2003/01/06",  1.4,  2.1,  0.7
"2003/01/07",  1.1,  2.1,  0.4
"2003/01/08",  1.1,  2.2,  0.2
"2003/01/09",  1.1,  2.3,  0.2
"2003/01/10",  1.6,  2.8,  0.5
"2003/01/11",  2.5,  3.8,  1.8
"2003/01/12",  2.1,  3.4,  1.0
"2003/01/13",  2.6,  3.9,  1.6
"2003/01/14",  2.7,  4.0,  1.5
"2003/01/15",  2.7,  3.5,  1.9
"2003/01/16",  1.4,  2.2,  0.5
"2003/01/17",  1.6,  3.0,  0.4
"2003/01/18",  1.9,  3.0,  1.0
"2003/01/19",  1.9,  2.4,  1.4
"2003/01/20",  2.9,  4.2,  1.9
"2003/01/21",  3.4,  4.5,  2.7
"2003/01/22",  2.3,  3.0,  1.3
"2003/01/23",  2.2,  2.4,  1.8
"2003/01/24",  2.3,  3.3,  1.6
"2003/01/25",  2.0,  3.2,  0.9
"2003/01/26",  2.0,  3.2,  0.8
"2003/01/27",  2.7,  3.0,  2.5
"2003/01/28",  3.7,  4.9,  2.9
"2003/01/29",  2.6,  3.6,  1.7
"2003/01/30",  1.3,  2.2,  0.5
"2003/01/31",  1.7,  3.2,  0.5
"2003/02/01",  2.0,  3.3,  0.8
"2003/02/02",  1.7,  2.6,  0.8
"2003/02/03",  2.4,  3.9,  1.3
"2003/02/04",  1.7,  2.4,  0.9
"2003/02/05",  2.3,  3.3,  1.5
"2003/02/06",  2.5,  3.9,  1.3
"2003/02/07",  2.2,  3.7,  0.8
"2003/02/08",  2.3,  3.7,  0.9
"2003/02/09",  4.6,  6.3,  3.4
"2003/02/10",  5.2,  6.7,  4.0
"2003/02/11",  5.8,  6.1,  5.5
"2003/02/12",  5.5,  5.8,  4.7
"2003/02/13",  4.6,  5.6,  3.6
"2003/02/14",  4.4,  5.9,  3.0
"2003/02/15",  4.2,  5.7,  2.7
"2003/02/16",  4.0,  4.4,  3.5
"2003/02/17",  3.8,  5.6,  2.2
"2003/02/18",  3.9,  4.3,  3.5
"2003/02/19",  4.1,  5.6,  2.7
"2003/02/20",  4.5,  4.8,  4.1
"2003/02/21",  4.2,  5.8,  2.6
"2003/02/22",  4.4,  5.0,  3.8
"2003/02/23",  4.6,  5.3,  4.1
"2003/02/24",  3.8,  4.6,  3.1
"2003/02/25",  3.7,  5.6,  2.2
"2003/02/26",  4.6,  6.3,  3.2
"2003/02/27",  5.4,  6.9,  4.0
"2003/02/28",  4.8,  6.4,  3.2
"2003/03/01",  4.1,  5.5,  3.3
"2003/03/02",  6.3,  7.6,  5.5
"2003/03/03",  6.0,  7.5,  4.7
"2003/03/04",  6.1,  7.0,  4.8
"2003/03/05",  4.6,  6.3,  3.0
"2003/03/06",  4.4,  5.1,  3.7
"2003/03/07",  5.2,  6.1,  4.5
"2003/03/08",  6.2,  7.8,  4.5
"2003/03/09",  6.4,  8.3,  4.7
"2003/03/10",  5.8,  7.7,  4.0
"2003/03/11",  5.7,  7.6,  3.8
"2003/03/12",  5.6,  7.5,  3.7
"2003/03/13",  5.8,  7.6,  4.2
"2003/03/14",  5.9,  7.6,  4.2
"2003/03/15",  6.3,  7.2,  5.7
"2003/03/16",  6.5,  8.2,  4.9
"2003/03/17",  6.2,  7.2,  5.2
"2003/03/18",  6.0,  8.0,  4.3
"2003/03/19",  7.2,  9.1,  5.6
"2003/03/20",  7.3,  9.1,  5.7
"2003/03/21",  7.4,  9.3,  5.7
"2003/03/22",  6.8,  7.5,  6.2
"2003/03/23",  7.4,  9.4,  5.5
"2003/03/24",  8.7, 10.8,  6.8
"2003/03/25",  8.8,  9.5,  8.1
"2003/03/26",  9.2, 11.7,  7.2
"2003/03/27", 10.1, 11.6,  8.5
"2003/03/28", 10.8, 12.3,  9.4
"2003/03/29",  9.5, 10.6,  8.2
"2003/03/30",  8.4, 10.3,  6.5
"2003/03/31",  9.6, 11.9,  7.3
"2003/04/01", 10.6, 12.1,  9.3
"2003/04/02",  9.7, 10.5,  9.1
"2003/04/03",  9.4, 10.7,  8.5
"2003/04/04",  9.4, 11.3,  7.7
"2003/04/05",  8.4, 10.1,  7.1
"2003/04/06",  8.5, 10.8,  6.6
"2003/04/07",  9.6, 12.0,  7.2
"2003/04/08", 10.9, 11.8, 10.0
"2003/04/09", 11.8, 13.7, 10.2
"2003/04/10", 11.4, 13.3,  9.5
"2003/04/11", 10.7, 11.8,  9.3
"2003/04/12", 11.6, 12.7, 10.4
"2003/04/13", 13.7, 15.9, 12.1
"2003/04/14", 13.4, 14.2, 12.7
"2003/04/15", 11.8, 12.7, 11.3
"2003/04/16", 12.8, 15.1, 10.9
"2003/04/17", 13.7, 15.8, 11.7
"2003/04/18", 14.6, 16.5, 12.6
"2003/04/19", 14.7, 16.0, 13.3
"2003/04/20", 13.4, 15.1, 12.0
"2003/04/21", 12.0, 13.2, 11.3
"2003/04/22", 12.1, 14.2, 10.1
"2003/04/23", 12.0, 12.4, 11.6
"2003/04/24", 12.6, 13.2, 12.1
"2003/04/25", 12.7, 13.2, 12.3
"2003/04/26", 14.0, 15.7, 12.4
"2003/04/27", 14.8, 16.6, 13.4
"2003/04/28", 15.0, 17.3, 12.9
"2003/04/29", 15.6, 17.5, 13.7
"2003/04/30", 15.6, 16.0, 14.8
"2003/05/01", 14.8, 16.5, 13.4
"2003/05/02", 14.7, 16.4, 12.9
"2003/05/03", 16.0, 17.9, 14.5
"2003/05/04", 16.9, 18.5, 15.6
"2003/05/05", 17.1, 18.5, 16.0
"2003/05/06", 17.1, 18.6, 15.8
"2003/05/07", 17.4, 18.2, 16.3
"2003/05/08", 17.7, 18.4, 16.2
"2003/05/09", 15.8, 17.4, 14.4
"2003/05/10", 15.4, 16.9, 13.9
"2003/05/11", 15.6, 17.0, 14.2
"2003/05/12", 15.7, 16.2, 15.2
"2003/05/13", 16.2, 17.8, 14.6
"2003/05/14", 16.5, 17.5, 15.3
"2003/05/15", 16.0, 16.6, 15.6
"2003/05/16", 15.6, 16.2, 15.1
"2003/05/17", 15.1, 15.5, 14.6
"2003/05/18", 14.9, 15.4, 14.3
"2003/05/19", 14.9, 15.2, 14.5
"2003/05/20", 15.4, 16.9, 14.1
"2003/05/21", 16.4, 18.2, 15.1
"2003/05/22", 17.0, 18.3, 16.0
"2003/05/23", 16.4, 17.1, 15.6
"2003/05/24", 16.7, 18.4, 15.2
"2003/05/25", 16.7, 18.0, 15.5
"2003/05/26", 16.4, 16.9, 15.8
"2003/05/27", 16.7, 17.7, 15.7
"2003/05/28", 18.1, 20.0, 16.5
"2003/05/29", 18.7, 20.3, 17.2
"2003/05/30", 18.8, 20.2, 17.6
"2003/05/31", 18.5, 19.2, 18.2
"2003/06/01", 19.0, 20.0, 18.3
"2003/06/02", 19.0, 20.3, 17.6
"2003/06/03", 19.3, 20.7, 18.1
"2003/06/04", 19.1, 19.7, 18.7
"2003/06/05", 19.4, 21.0, 17.9
"2003/06/06", 18.8, 19.6, 18.2
"2003/06/07", 18.7, 19.4, 18.0
"2003/06/08", 18.7, 19.6, 17.9
"2003/06/09", 18.7, 19.7, 17.8
"2003/06/10", 18.9, 20.0, 17.9
"2003/06/11", 19.4, 20.3, 18.5
"2003/06/12", 19.7, 20.4, 19.0
"2003/06/13", 20.4, 21.2, 19.8
"2003/06/14", 21.3, 22.1, 20.4
"2003/06/15", 20.9, 21.5, 20.2
"2003/06/16", 20.8, 21.4, 20.1
"2003/06/17", 20.7, 21.5, 20.0
"2003/06/18", 21.2, 21.9, 20.4
"2003/06/19", 22.0, 23.4, 20.7
"2003/06/20", 22.6, 23.3, 21.9
"2003/06/21", 23.0, 24.5, 21.6
"2003/06/22", 22.9, 23.8, 22.1
"2003/06/23", 21.6, 22.6, 21.1
"2003/06/24", 20.8, 21.1, 20.7
"2003/06/25", 20.4, 20.7, 20.1
"2003/06/26", 19.7, 20.1, 19.2
"2003/06/27", 20.6, 22.5, 18.8
"2003/06/28", 20.7, 21.7, 20.0
"2003/06/29", 21.0, 22.7, 19.6
"2003/06/30", 21.9, 23.2, 20.7
"2003/07/01", 21.3, 22.2, 20.4
"2003/07/02", 20.9, 22.1, 19.8
"2003/07/03", 21.0, 21.7, 20.3
"2003/07/04", 21.8, 23.3, 20.6
"2003/07/05", 22.3, 23.3, 21.4
"2003/07/06", 21.3, 22.0, 20.9
"2003/07/07", 20.7, 21.1, 20.5
"2003/07/08", 19.7, 20.5, 19.0
"2003/07/09", 19.3, 20.1, 18.6
"2003/07/10", 19.8, 20.2, 19.4
"2003/07/11", 21.7, 23.6, 20.2
"2003/07/12", 22.6, 23.7, 21.8
"2003/07/13", 21.1, 22.5, 20.1
"2003/07/14", 19.5, 20.2, 19.1
"2003/07/15", 19.8, 21.4, 18.5
"2003/07/16", 20.4, 20.9, 19.7
"2003/07/17", 20.5, 21.6, 19.6
"2003/07/18", 20.8, 21.5, 20.0
"2003/07/19", 20.6, 21.0, 20.3
"2003/07/20", 20.5, 21.1, 20.0
"2003/07/21", 20.8, 21.4, 20.2
"2003/07/22", 20.2, 20.9, 19.6
"2003/07/23", 19.3, 19.7, 18.9
"2003/07/24", 19.4, 20.1, 18.8
"2003/07/25", 20.2, 21.0, 19.4
"2003/07/26", 20.1, 20.5, 19.7
"2003/07/27", 20.2, 21.2, 19.4
"2003/07/28", 20.3, 21.2, 19.3
"2003/07/29", 21.0, 21.8, 20.1
"2003/07/30", 21.8, 22.3, 21.4
"2003/07/31", 22.4, 23.4, 21.6
"2003/08/01", 21.7, 22.5, 21.3
"2003/08/02", 22.3, 23.9, 21.0
"2003/08/03", 23.9, 25.2, 22.7
"2003/08/04", 24.6, 25.9, 23.3
"2003/08/05", 25.1, 26.2, 24.2
"2003/08/06", 24.8, 25.5, 24.2
"2003/08/07", 24.4, 25.2, 23.6
"2003/08/08", 24.6, 25.2, 23.8
"2003/08/09", 24.3, 24.7, 23.9
"2003/08/10", 24.7, 26.1, 23.5
"2003/08/11", 25.3, 26.1, 24.5
"2003/08/12", 24.6, 25.3, 23.8
"2003/08/13", 23.3, 23.8, 22.9
"2003/08/14", 21.7, 23.0, 20.1
"2003/08/15", 18.6, 20.1, 18.1
"2003/08/16", 18.6, 18.9, 18.4
"2003/08/17", 18.7, 19.2, 18.3
"2003/08/18", 19.4, 20.3, 18.8
"2003/08/19", 20.0, 20.6, 19.5
"2003/08/20", 20.8, 21.7, 20.0
"2003/08/21", 22.1, 23.3, 20.9
"2003/08/22", 23.2, 24.4, 22.1
"2003/08/23", 24.0, 25.1, 22.9
"2003/08/24", 24.4, 25.5, 23.3
"2003/08/25", 24.8, 25.9, 23.9
"2003/08/26", 24.8, 25.5, 24.2
"2003/08/27", 23.6, 24.8, 22.9
"2003/08/28", 22.7, 22.9, 22.3
"2003/08/29", 23.6, 24.9, 22.4
"2003/08/30", 23.3, 24.2, 22.6
"2003/08/31", 22.4, 22.8, 21.8
"2003/09/01", 21.5, 21.8, 21.3
"2003/09/02", 22.0, 22.9, 21.1
"2003/09/03", 23.3, 24.4, 22.3
"2003/09/04", 23.2, 23.8, 22.7
"2003/09/05", 22.7, 23.5, 21.8
"2003/09/06", 23.2, 24.4, 22.0
"2003/09/07", 22.7, 23.8, 22.1
"2003/09/08", 22.2, 22.9, 21.5
"2003/09/09", 23.3, 24.8, 22.1
"2003/09/10", 23.9, 24.9, 23.0
"2003/09/11", 24.6, 26.0, 23.4
"2003/09/12", 25.0, 25.9, 24.1
"2003/09/13", 25.1, 26.0, 24.3
"2003/09/14", 25.1, 25.9, 24.3
"2003/09/15", 24.8, 26.0, 23.7
"2003/09/16", 24.1, 24.8, 23.6
"2003/09/17", 24.0, 25.0, 23.0
"2003/09/18", 24.5, 25.6, 23.4
"2003/09/19", 24.7, 25.7, 23.6
"2003/09/20", 23.0, 24.8, 21.1
"2003/09/21", 18.9, 21.1, 17.2
"2003/09/22", 17.4, 17.9, 17.1
"2003/09/23", 17.7, 18.6, 16.7
"2003/09/24", 18.1, 18.5, 17.7
"2003/09/25", 18.0, 18.5, 17.6
"2003/09/26", 19.0, 19.8, 18.2
"2003/09/27", 19.6, 20.4, 18.8
"2003/09/28", 19.7, 20.4, 19.0
"2003/09/29", 19.5, 20.3, 18.7
"2003/09/30", 19.2, 20.2, 18.3
"2003/10/01"," * "," * "," * "
"2003/10/02"," * "," * "," * "
"2003/10/03"," * "," * "," * "
"2003/10/04", 18.2, 18.7, 17.6
"2003/10/05", 18.0, 18.7, 17.3
"2003/10/06", 17.6, 18.0, 16.9
"2003/10/07", 16.8, 17.2, 16.3
"2003/10/08", 16.5, 16.9, 16.2
"2003/10/09", 16.3, 17.3, 15.4
"2003/10/10", 16.6, 17.8, 15.5
"2003/10/11", 17.0, 17.8, 16.2
"2003/10/12", 17.7, 18.6, 17.0
"2003/10/13", 18.7, 19.7, 18.0
"2003/10/14", 17.0, 18.4, 15.3
"2003/10/15", 15.7, 16.9, 14.9
"2003/10/16", 16.1, 17.3, 15.3
"2003/10/17", 15.6, 16.7, 14.7
"2003/10/18", 15.1, 15.8, 14.3
"2003/10/19", 15.2, 16.7, 13.8
"2003/10/20", 15.3, 16.3, 14.5
"2003/10/21", 15.2, 16.5, 14.0
"2003/10/22", 15.6, 15.7, 15.3
"2003/10/23", 16.1, 17.4, 15.3
"2003/10/24", 14.9, 16.1, 13.7
"2003/10/25", 14.4, 14.8, 14.1
"2003/10/26", 14.7, 15.6, 14.0
"2003/10/27", 14.4, 15.0, 13.9
"2003/10/28", 14.3, 14.6, 13.9
"2003/10/29", 15.0, 16.3, 14.1
"2003/10/30", 14.5, 15.9, 13.2
"2003/10/31", 14.3, 15.4, 13.1
"2003/11/01", 14.6, 15.2, 14.0
"2003/11/02", 15.3, 16.4, 14.2
"2003/11/03", 15.5, 15.8, 15.1
"2003/11/04", 15.7, 16.6, 15.0
"2003/11/05", 15.2, 16.1, 14.2
"2003/11/06", 15.4, 16.2, 14.9
"2003/11/07", 15.2, 16.1, 14.5
"2003/11/08", 15.3, 16.2, 14.4
"2003/11/09", 14.7, 15.3, 14.0
"2003/11/10", 13.3, 14.0, 12.5
"2003/11/11", 12.1, 12.5, 11.9
"2003/11/12", 12.5, 13.6, 11.8
"2003/11/13", 12.4, 12.9, 11.9
"2003/11/14", 11.6, 12.7, 10.7
"2003/11/15", 11.4, 12.1, 10.8
"2003/11/16", 13.3, 14.6, 12.0
"2003/11/17", 12.5, 13.6, 11.4
"2003/11/18", 10.9, 11.8,  9.7
"2003/11/19", 11.3, 12.1, 10.5
"2003/11/20", 11.4, 11.7, 11.2
"2003/11/21", 12.5, 13.9, 11.4
"2003/11/22", 12.7, 13.5, 11.9
"2003/11/23", 11.0, 11.9, 10.5
"2003/11/24", 10.4, 10.8, 10.0
"2003/11/25", 10.7, 11.2, 10.4
"2003/11/26", 10.6, 11.3, 10.0
"2003/11/27",  9.4, 10.1,  9.0
"2003/11/28",  9.4,  9.9,  8.9
"2003/11/29", 10.1, 10.8,  9.6
"2003/11/30", 11.3, 11.8, 10.8
"2003/12/01", 11.3, 11.6, 10.7
"2003/12/02", 10.7, 11.7, 10.0
"2003/12/03",  9.1, 10.1,  8.4
"2003/12/04",  8.4,  9.5,  7.3
"2003/12/05",  7.7,  8.4,  7.3
"2003/12/06",  8.1,  8.8,  7.5
"2003/12/07",  8.3,  9.3,  7.4
"2003/12/08",  7.9,  8.9,  7.3
"2003/12/09",  7.0,  8.0,  6.2
"2003/12/10",  6.8,  7.8,  6.0
"2003/12/11",  6.1,  6.4,  5.8
"2003/12/12",  6.6,  7.0,  6.2
"2003/12/13",  6.2,  7.0,  5.4
"2003/12/14",  5.5,  6.8,  4.4
"2003/12/15",  5.7,  7.0,  4.6
"2003/12/16",  5.4,  6.2,  4.6
"2003/12/17",  4.6,  5.2,  4.0
"2003/12/18",  4.4,  5.2,  3.6
"2003/12/19",  5.2,  6.4,  4.4
"2003/12/20",  4.4,  5.2,  4.0
"2003/12/21",  4.1,  4.9,  3.4
"2003/12/22",  3.8,  4.8,  2.7
"2003/12/23",  4.3,  5.6,  3.2
"2003/12/24",  4.4,  5.6,  3.3
"2003/12/25",  4.4,  5.6,  3.4
"2003/12/26",  4.5,  5.2,  3.6
"2003/12/27",  4.5,  5.1,  3.6
"2003/12/28",  3.1,  4.2,  2.2
"2003/12/29",  3.2,  4.3,  2.2
"2003/12/30",  3.8,  4.9,  2.9
"2003/12/31",  4.6,  5.5,  3.9
